This demonstration page uses our WeatherBlox Daily Observations layout. Learn more.

Left ArrowRight Arrow

Hourly Observations for July 24, 2015

Temp ( °F °C ) Dew Point ( °F °C ) Humidity (%) Winds ( mph kmh ) Pressure ( in mb ) Visibility ( mi km ) Precip ( " mm )
12:52 am 00:52 Clear 77 25 73 22.8 88 88 SE 3 6 29.92 1013 10 16 0.00 0.00
1:52 am 01:52 Clear 77 25 73 22.8 88 88 SSE 5 7 29.92 1013 10 16 0.00 0.00
2:52 am 02:52 Clear 75 23.9 72 22.2 90 90 SSE 3 6 29.91 1013 10 16 0.00 0.00
3:52 am 03:52 Clear 74 23.3 71 21.7 91 91 SE 5 7 29.92 1013 10 16 0.00 0.00
4:52 am 04:52 Clear 74 23.3 71 21.7 91 91 SSE 3 6 29.93 1013 10 16 0.00 0.00
5:40 am 05:40 Mostly Cloudy 73 23 72 22 94 94 SSE 5 7 29.94 1014 10 16 0.00 0.00
5:47 am 05:47 Mostly Clear 73 23 72 22 94 94 SE 5 7 29.94 1014 10 16 0.00 0.00
5:52 am 05:52 Mostly Clear 74 23.3 71 21.7 91 91 SSE 6 9 29.94 1014 10 16 0.00 0.00
6:52 am 06:52 Mostly Cloudy 75 23.9 73 22.8 94 94 SSE 7 11 29.96 1015 9 14 0.00 0.00
7:22 am 07:22 Mostly Cloudy 75 24 73 23 94 94 SE 5 7 29.97 1015 9 14 0.00 0.00
7:31 am 07:31 Mostly Cloudy 76 24.4 73 22.8 91 91 ESE 5 7 29.94 1014 9 14 0.00 0.00
7:52 am 07:52 Mostly Cloudy 77 25 74 23.3 90 90 SSE 7 11 29.96 1015 9 14 0.00 0.00
8:52 am 08:52 Mostly Sunny 81 27.2 76 24.4 85 85 VRB 3 6 29.98 1015 10 16 0.00 0.00
9:52 am 09:52 Sunny 83 28.3 76 24.4 79 79 S 7 11 29.98 1015 10 16 0.00 0.00
10:52 am 10:52 Sunny 86 30 76 24.4 72 72 SSW 7 11 29.97 1015 10 16 0.00 0.00
11:52 am 11:52 Sunny 88 31.1 76 24.4 68 68 S 6 9 29.96 1015 10 16 0.00 0.00
12:52 pm 12:52 Sunny 91 32.8 72 22.2 54 54 Calm 29.96 1015 10 16 0.00 0.00
1:52 pm 13:52 Sunny 91 32.8 73 22.8 56 56 SSW 7 11 29.94 1014 10 16 0.00 0.00
2:52 pm 14:52 Sunny 93 33.9 73 22.8 52 52 WSW 7 11 29.94 1014 10 16 0.00 0.00
3:52 pm 15:52 Sunny 91 32.8 74 23.3 57 57 SW 6 9 29.94 1014 10 16 0.00 0.00
4:52 pm 16:52 Mostly Sunny 92 33.3 74 23.3 56 56 SW 7 11 29.93 1014 10 16 0.00 0.00
5:52 pm 17:52 Partly Cloudy 93 33.9 74 23.3 54 54 SW 7 11 29.91 1013 10 16 0.00 0.00
6:52 pm 18:52 Sunny 90 32.2 77 25 66 66 SSW 7 11 29.89 1012 10 16 0.00 0.00
7:52 pm 19:52 Sunny 89 31.7 77 25 68 68 Calm 29.91 1013 10 16 0.00 0.00
8:27 pm 20:27 Partly Cloudy with Nearby Thunderstorms 89 31.7 76 24.4 65 65 E 3 6 29.91 1013 10 16 0.00 0.00
8:41 pm 20:41 Partly Cloudy 86 30 75 23.9 70 70 ENE 37 59 29.94 1014 10 16 0.00 0.00
8:52 pm 20:52 Mostly Cloudy 78 25.6 67 19.4 69 69 ENE 26 43 29.99 1016 10 16 0.00 0.00
9:52 pm 21:52 Mostly Clear 72 22.2 65 18.3 79 79 S 14 22 29.92 1013 10 16 0.00 0.03
10:52 pm 22:52 Clear 71 21.7 67 19.4 87 87 SSW 10 17 29.93 1014 10 16 0.00 0.00
11:52 pm 23:52 Clear 72 22.2 66 18.9 82 82 S 7 11 29.93 1014 10 16 0.00 0.00

Powered by AerisWeather